[[{"header":{"parameterUnit":"m.s-1","parameterCategory":1,"la1":30.2991,"la2":30.254,"lo1":-89.0895,"lo2":-89.0444,"dy":0.0017,"dx":0.0017,"nx":28,"ny":28,"refTime":"2023-08-19T09:00:00:Z","depth":0,"parameterNumber":2,"parameterNumberName":"U-component_of_WINDS"},"data":[0,0,0,0,0,0,0,0,0,0,0,0,0,0,0,0,0,0,0,0,0,0,0,0,0,0,0,0,0,0,0,0,0,0,0,0,0,0,0,0,0,0,0,0,0,0,0,0,0,0,0,0,0,0,0,0,0,0,-5.4078,-5.4079,0,-5.4112,-5.4113,-5.4113,-5.3926,-5.392,-5.3915,-5.391,-5.3946,-5.3951,-5.3957,0,0,0,0,0,0,0,0,0,0,0,0,0,-5.3851,-5.3857,-5.4078,-5.4079,-5.4079,-5.4112,-5.4113,-5.4113,-5.3927,-5.392,-5.3914,-5.3908,-5.3944,-5.3951,-5.3958,0,0,0,0,0,0,0,0,0,0,0,0,0,-5.3924,-5.3858,-5.4078,-5.399,-5.3982,-5.4112,-5.4113,-5.4113,-5.3928,-5.392,-5.3912,-5.3904,-5.3941,-5.395,-5.3959,-5.4175,0,0,-5.3986,-5.399,0,0,0,0,0,0,0,0,-5.392,-5.3933,-5.4003,-5.3996,-5.3988,-5.4007,-5.4046,-5.4134,-5.393,-5.3949,-5.391,-5.39,-5.3972,-5.3978,-5.4002,-5.4177,-5.4178,-5.3987,-5.3992,-5.3996,-5.3999,0,0,0,0,0,0,0,-5.3916,-5.393,-5.4092,-5.4004,-5.3995,-5.3949,-5.395,-5.4062,-5.4005,-5.3947,-5.3933,-5.394,-5.3967,-5.3994,-5.4002,-5.4179,-5.3987,-5.3994,-5.4,-5.4003,-5.4531,-5.454,0,0,0,0,0,0,-5.3922,-5.3927,-5.4091,-5.4093,-5.3934,-5.3959,-5.3961,-5.4009,-5.4004,-5.3995,-5.3946,-5.3931,-5.3983,-5.3992,-5.4002,-5.4254,-5.3996,-5.4004,-5.4009,-5.4523,-5.4533,-5.4543,0,0,0,0,0,0,-5.3918,-5.3939,-5.4089,-5.4006,-5.4022,-5.3972,-5.4027,-5.4014,-5.4041,-5.4004,-5.3993,-5.3985,-5.3977,-5.399,-5.4133,-5.4253,-5.4008,-5.4016,-5.4513,-5.4526,-5.4538,-5.4761,0,0,0,0,0,0,-5.3913,-5.3938,-5.402,-5.401,-5.4027,-5.422,-5.4034,-5.402,-5.4057,-5.4036,-5.4037,-5.4029,-5.3972,-5.4121,-5.4142,-5.4261,-5.4023,-5.4502,-5.4519,-5.4534,-5.4743,-5.478,-5.4812,0,0,0,0,0,-5.3905,-5.4082,-5.4025,-5.4046,-5.4128,-5.4228,-5.4238,-5.4168,-5.4067,-5.4149,-5.4125,-5.4029,-5.4237,-5.4137,-5.4159,-5.4283,-5.4494,-5.4514,-5.4533,-5.4727,-5.4773,-5.4812,0,0,0,0,0,0,-5.4108,-5.4079,-5.4016,-5.4194,-5.4215,-5.4196,-5.4296,-5.4219,-5.4268,-5.4247,-5.4159,-5.416,-5.4319,-5.4315,-5.4205,-5.4491,-5.4348,-5.4373,-5.4488,-5.4531,-5.4565,-5.4562,-5.4031,0,0,0,0,0,-5.4173,-5.4256,-5.4226,-5.4387,-5.4401,-5.4348,-5.4388,-5.4333,-5.435,-5.4358,-5.4344,-5.4366,-5.4435,-5.4483,-5.4545,-5.4742,-5.4739,-5.4838,-5.4872,-5.4901,-5.4923,-5.5026,-5.507,-5.4607,-5.4607,-5.4606,0,0,-5.4309,-5.4304,-5.4362,-5.4428,-5.4437,-5.4525,-5.4356,-5.4456,-5.452,-5.4373,-5.4507,-5.4499,-5.4516,-5.4687,-5.4762,-5.4689,-5.5051,-5.4926,-5.4949,-5.4956,-5.5051,-5.5095,-5.5134,-5.462,-5.4618,-5.4615,0,0,-5.4602,-5.4607,-5.474,-5.4753,-5.477,-5.4733,-5.4766,-5.4759,-5.4747,-5.488,-5.4772,-5.4847,-5.4969,-5.4986,-5.501,-5.531,-5.5224,-5.5333,-5.5514,-5.5615,-5.5652,-5.5683,-5.579,-5.5829,-5.5355,-5.5356,-5.5356,0,-5.4769,-5.4897,-5.4819,-5.4927,-5.4959,-5.483,-5.4965,-5.4981,-5.5017,-5.5042,-5.496,-5.511,-5.5113,-5.5286,-5.5359,-5.5384,-5.5417,-5.5332,-5.5653,-5.5684,-5.5712,-5.5813,-5.5853,-5.5369,-5.5368,-5.5366,-5.5365,0,-5.5101,-5.5192,-5.5298,-5.5336,-5.538,-5.5501,-5.5441,-5.5495,-5.5437,-5.5409,-5.5546,-5.5545,-5.5605,-5.5642,-5.5585,-5.5807,-5.5761,-5.5668,-5.5521,-5.5771,-5.5864,-5.5902,-5.5388,-5.5383,-5.5379,-5.5376,0,0,-5.5522,-5.5515,-5.5556,-5.5571,-5.558,-5.5648,-5.5763,-5.5821,-5.5869,-5.5898,-5.5992,-5.6099,-5.6012,-5.604,-5.5985,-5.6074,-5.6311,-5.5969,-5.5968,-5.6032,-5.6554,-5.6624,-5.6669,-5.6254,-5.6261,-5.6266,-5.6552,0,-5.5807,-5.6003,-5.5937,-5.6136,-5.6218,-5.6097,-5.6197,-5.6213,-5.6191,-5.6257,-5.6231,-5.6308,-5.6189,-5.6205,-5.6288,-5.6265,-5.6414,-5.6243,-5.634,-5.6344,-5.6338,-5.6718,-5.6792,-5.7062,-5.6588,-5.6594,-5.6598,0,-5.6166,-5.621,-5.6418,-5.6412,-5.6443,-5.6535,-5.6582,-5.6648,-5.6664,-5.6641,-5.6673,-5.6598,-5.671,-5.6565,-5.6718,-5.6603,-5.6639,-5.6633,-5.6642,-5.6648,-5.6486,-5.6733,-5.7146,-5.7186,-5.6655,-5.665,-5.6646,0,-5.6451,-5.6562,-5.67,-5.6717,-5.6714,-5.6781,-5.6783,-5.6791,-5.683,-5.6872,-5.6896,-5.6951,-5.6981,-5.7025,-5.6967,-5.6867,-5.7129,-5.6978,-5.7113,-5.7114,-5.7172,-5.7169,-5.7596,-5.7198,-5.7197,-5.7197,-5.7196,0,-5.6776,-5.6908,-5.6828,-5.6913,-5.7057,-5.6979,-5.7123,-5.7112,-5.712,-5.72,-5.7099,-5.7177,-5.7096,-5.7167,-5.7122,-5.7255,-5.727,-5.7254,-5.7241,-5.7263,-5.7265,-5.7284,-5.7264,-5.7207,-5.7205,-5.7203,-5.7201,0,-5.7119,-5.707,-5.7213,-5.7198,-5.7198,-5.7304,-5.7292,-5.737,-5.734,-5.7443,-5.7463,-5.7417,-5.7494,-5.7441,-5.7519,-5.7488,-5.7663,-5.7624,-5.7658,-5.7647,-5.7784,-5.7771,-5.8237,-5.8294,-5.7861,-5.7865,-5.7868,0,-5.7329,-5.7427,-5.7423,-5.747,-5.7478,-5.7555,-5.7594,-5.7522,-5.7567,-5.7592,-5.7667,-5.7736,-5.7787,-5.7916,-5.789,-5.7949,-5.7909,-5.8069,-5.7917,-5.7936,-5.7911,-5.7905,-5.7914,-5.8099,-5.8104,-5.8108,-5.8112,0,-5.7707,-5.7678,-5.7738,-5.7791,-5.7841,-5.7879,-5.7909,-5.7953,-5.788,-5.7936,-5.8013,-5.8053,-5.8132,-5.8202,-5.825,-5.8252,-5.8171,-5.816,-5.8193,-5.8217,-5.8232,-5.8224,-5.774,-5.8149,-5.8145,-5.8142,-5.814,-5.8139,-5.7988,-5.8069,-5.8079,-5.815,-5.8165,-5.8195,-5.8267,-5.8247,-5.8311,-5.8369,-5.8323,-5.8416,-5.8429,-5.8486,-5.8498,-5.8569,-5.8504,-5.8553,-5.8566,-5.8579,-5.8597,-5.8222,-5.8578,-5.8577,-5.8576,-5.8575,-5.8574,0,-5.8359,-5.836,-5.8426,-5.8471,-5.8527,-5.8445,-5.8474,-5.8526,-5.8609,-5.8628,-5.868,-5.877,-5.8837,-5.8816,-5.8875,-5.8936,-5.8901,-5.8954,-5.8949,-5.895,-5.8653,-5.8617,-5.8982,-5.8982,-5.8982,-5.8982,-5.8982,-5.8982,-5.8559,-5.8692,-5.8665,-5.8805,-5.8804,-5.8894,-5.8917,-5.8945,-5.8959,-5.9064,-5.9119,-5.9105,-5.9108,-5.9167,-5.9224,-5.9216,-5.9243,-5.931,-5.9289,-5.9012,-5.8971,-5.8933,-5.8898,-5.9317,-5.9317,-5.958,-5.9582,-5.9584]},{"header":{"parameterUnit":"m.s-1","parameterCategory":1,"la1":30.2991,"la2":30.254,"lo1":-89.0895,"lo2":-89.0444,"dy":0.0017,"dx":0.0017,"nx":28,"ny":28,"refTime":"2023-08-19T09:00:00:Z","depth":0,"parameterNumber":3,"parameterNumberName":"V-component_of_WINDS"},"data":[0,0,0,0,0,0,0,0,0,0,0,0,0,0,0,0,0,0,0,0,0,0,0,0,0,0,0,0,0,0,0,0,0,0,0,0,0,0,0,0,0,0,0,0,0,0,0,0,0,0,0,0,0,0,0,0,0,0,-0.9188,-0.9186,0,-0.9076,-0.9074,-0.9073,-0.9044,-0.9044,-0.9045,-0.9046,-0.8926,-0.8922,-0.8918,0,0,0,0,0,0,0,0,0,0,0,0,0,-0.9368,-0.9365,-0.9188,-0.9186,-0.9185,-0.9076,-0.9074,-0.9073,-0.9043,-0.9044,-0.9045,-0.9046,-0.8927,-0.8922,-0.8918,0,0,0,0,0,0,0,0,0,0,0,0,0,-0.9276,-0.9364,-0.9188,-0.9157,-0.9153,-0.9076,-0.9074,-0.9072,-0.9043,-0.9044,-0.9045,-0.9046,-0.8928,-0.8923,-0.8917,-0.8861,0,0,-0.8899,-0.8897,0,0,0,0,0,0,0,0,-0.9282,-0.927,-0.9163,-0.9159,-0.9155,-0.9075,-0.9094,-0.9001,-0.9043,-0.9085,-0.9046,-0.9047,-0.8974,-0.8965,-0.8941,-0.8855,-0.885,-0.8899,-0.8895,-0.8893,-0.8891,0,0,0,0,0,0,0,-0.9288,-0.9274,-0.9143,-0.9162,-0.9156,-0.9146,-0.9135,-0.9076,-0.9025,-0.9081,-0.9079,-0.9066,-0.8972,-0.8947,-0.8938,-0.8848,-0.8899,-0.8894,-0.889,-0.8888,-0.8705,-0.8704,0,0,0,0,0,0,-0.9301,-0.928,-0.9147,-0.914,-0.9222,-0.9142,-0.9129,-0.9099,-0.9025,-0.9015,-0.9066,-0.9065,-0.8956,-0.8945,-0.8934,-0.886,-0.8893,-0.8888,-0.8884,-0.8706,-0.8705,-0.8703,0,0,0,0,0,0,-0.9305,-0.9289,-0.9151,-0.9209,-0.9191,-0.9138,-0.9105,-0.9097,-0.9071,-0.9014,-0.9004,-0.905,-0.8956,-0.8942,-0.8878,-0.8855,-0.8885,-0.888,-0.8708,-0.8706,-0.8704,-0.8713,0,0,0,0,0,0,-0.931,-0.9291,-0.9271,-0.9209,-0.9188,-0.91,-0.9104,-0.9094,-0.9062,-0.9061,-0.8996,-0.8986,-0.8956,-0.8887,-0.8873,-0.8848,-0.8875,-0.871,-0.8707,-0.8705,-0.8715,-0.8712,-0.8709,0,0,0,0,0,-0.9317,-0.9278,-0.927,-0.9254,-0.9162,-0.9099,-0.9087,-0.9054,-0.9061,-0.9038,-0.9001,-0.8988,-0.886,-0.8881,-0.8864,-0.8837,-0.8711,-0.8708,-0.8705,-0.8716,-0.8713,-0.8709,0,0,0,0,0,0,-0.9337,-0.9269,-0.926,-0.9201,-0.9156,-0.9094,-0.9066,-0.9052,-0.9003,-0.9004,-0.8964,-0.8949,-0.8888,-0.8856,-0.888,-0.8776,-0.8785,-0.8779,-0.88,-0.8796,-0.8793,-0.8801,-0.887,0,0,0,0,0,-0.9335,-0.9292,-0.9234,-0.9187,-0.9165,-0.9119,-0.909,-0.9069,-0.902,-0.9001,-0.8959,-0.891,-0.8858,-0.8825,-0.8775,-0.871,-0.8694,-0.8683,-0.868,-0.8678,-0.8673,-0.8632,-0.8626,-0.8693,-0.8693,-0.8693,0,0,-0.933,-0.9287,-0.9262,-0.9189,-0.9153,-0.9105,-0.9103,-0.9055,-0.9018,-0.8993,-0.893,-0.8897,-0.884,-0.8775,-0.8744,-0.8746,-0.865,-0.8674,-0.8673,-0.8668,-0.8628,-0.8622,-0.8616,-0.8691,-0.8691,-0.8691,0,0,-0.9296,-0.9261,-0.9216,-0.9179,-0.9123,-0.9092,-0.9081,-0.9021,-0.8998,-0.8935,-0.8914,-0.8869,-0.8782,-0.8741,-0.8709,-0.8656,-0.8641,-0.864,-0.8625,-0.8586,-0.8581,-0.8576,-0.8554,-0.8547,-0.8635,-0.8635,-0.8635,0,-0.9296,-0.9227,-0.9194,-0.9146,-0.9113,-0.9088,-0.9041,-0.9005,-0.8935,-0.8911,-0.8916,-0.8804,-0.8764,-0.8687,-0.8674,-0.865,-0.8633,-0.8647,-0.8584,-0.8579,-0.8574,-0.8552,-0.8545,-0.8635,-0.8635,-0.8635,-0.8635,0,-0.9228,-0.9179,-0.915,-0.9083,-0.9047,-0.8999,-0.8956,-0.8923,-0.8904,-0.8872,-0.8805,-0.8756,-0.8694,-0.8674,-0.8655,-0.8593,-0.8596,-0.8593,-0.86,-0.8568,-0.8547,-0.8539,-0.8635,-0.8635,-0.8635,-0.8635,0,0,-0.9205,-0.912,-0.9109,-0.9077,-0.9012,-0.8972,-0.8922,-0.8862,-0.8832,-0.8784,-0.8738,-0.8663,-0.8659,-0.8623,-0.8598,-0.8564,-0.8521,-0.8565,-0.8563,-0.8556,-0.8445,-0.8447,-0.8438,-0.8511,-0.851,-0.8508,-0.8449,0,-0.9161,-0.9072,-0.904,-0.8965,-0.8918,-0.8892,-0.8847,-0.8801,-0.8769,-0.8721,-0.8685,-0.8632,-0.8632,-0.8609,-0.8575,-0.8534,-0.8498,-0.8538,-0.8465,-0.8463,-0.8479,-0.8427,-0.8429,-0.8376,-0.8441,-0.844,-0.8439,0,-0.9099,-0.905,-0.8971,-0.8908,-0.8887,-0.8848,-0.8788,-0.8745,-0.869,-0.8668,-0.8626,-0.8603,-0.8546,-0.8557,-0.8475,-0.8503,-0.8471,-0.8446,-0.8443,-0.8434,-0.8448,-0.8414,-0.8359,-0.835,-0.8426,-0.8427,-0.8428,0,-0.9087,-0.9001,-0.8941,-0.8915,-0.8842,-0.8814,-0.8781,-0.8728,-0.8693,-0.864,-0.8616,-0.8557,-0.8523,-0.8477,-0.8437,-0.845,-0.8357,-0.8366,-0.8334,-0.8335,-0.8315,-0.8317,-0.8251,-0.8298,-0.8298,-0.8298,-0.8299,0,-0.904,-0.8992,-0.8935,-0.8898,-0.8842,-0.8804,-0.8748,-0.8714,-0.8666,-0.8619,-0.8593,-0.855,-0.8501,-0.845,-0.8419,-0.8353,-0.8339,-0.8318,-0.831,-0.8319,-0.8322,-0.8297,-0.8298,-0.8296,-0.8297,-0.8297,-0.8298,0,-0.9017,-0.8978,-0.8911,-0.8846,-0.8828,-0.879,-0.8733,-0.8694,-0.866,-0.8602,-0.8585,-0.8531,-0.8469,-0.8426,-0.8346,-0.8325,-0.8253,-0.8247,-0.8272,-0.8268,-0.8238,-0.824,-0.8153,-0.8138,-0.8197,-0.8196,-0.8196,0,-0.899,-0.8952,-0.8883,-0.8851,-0.8819,-0.8767,-0.8731,-0.8691,-0.8653,-0.8586,-0.8554,-0.8491,-0.8439,-0.8341,-0.8293,-0.8231,-0.822,-0.8194,-0.8211,-0.822,-0.8217,-0.8219,-0.8213,-0.8191,-0.8191,-0.819,-0.819,0,-0.8944,-0.8925,-0.8875,-0.8817,-0.8774,-0.8726,-0.8677,-0.8652,-0.8602,-0.8561,-0.8498,-0.8457,-0.8375,-0.8312,-0.8245,-0.8208,-0.8189,-0.8185,-0.8174,-0.8182,-0.8198,-0.8186,-0.8263,-0.8187,-0.8187,-0.8188,-0.8188,-0.8188,-0.8916,-0.888,-0.8825,-0.8768,-0.8727,-0.8682,-0.8642,-0.8602,-0.855,-0.8481,-0.846,-0.8393,-0.8335,-0.8243,-0.8205,-0.8151,-0.8152,-0.8137,-0.8132,-0.8129,-0.8128,-0.8208,-0.8139,-0.8139,-0.8139,-0.8139,-0.8139,0,-0.8866,-0.8829,-0.8778,-0.871,-0.8665,-0.8653,-0.8597,-0.8559,-0.8502,-0.845,-0.8399,-0.8324,-0.8262,-0.8208,-0.8142,-0.8108,-0.8097,-0.8092,-0.8093,-0.8084,-0.8132,-0.8147,-0.8101,-0.8101,-0.8101,-0.8101,-0.8101,-0.8101,-0.8835,-0.8772,-0.8747,-0.8662,-0.8624,-0.856,-0.8529,-0.8485,-0.8443,-0.8362,-0.831,-0.8276,-0.8222,-0.8151,-0.8091,-0.8077,-0.8052,-0.8048,-0.8031,-0.8077,-0.8081,-0.8085,-0.8099,-0.8044,-0.8044,-0.7988,-0.7987,-0.7987]}]]